Terminal Aerodrome Forecast
Issued by NWS Des Moines, IA

Home | Current Version | Previous Version | Text Only | Print | Product List | Glossary On
Versions: 1 2 3 4 5 6 7 8 9 10 11 12 13 14 15 16 17 18 19 20 21 22 23 24 25 26 27 28 29 30 31 32 33 34
000
FTUS43 KDMX 192338
TAFALO
TAF
KALO 192338Z 2000/2024 15007KT P6SM SCT015 OVC040
     FM200500 15006KT 6SM BR BKN015
     FM201100 16006KT 4SM BR BKN008
     FM201600 16007KT 6SM BR BKN019=

USA.gov is the U.S. government's official web portal to all federal, state and local government web resources and services.